User: anonymous   Login
Location: Unspecified
(0.0000°N, 0.0000°E)
Time: 13:43:01
(UTC+00:00)
Language:

N. Korean satellite - Orbit

View from above orbital plane
View from above orbital plane
View from above satellite
View from above satellite

Ground track
Ground track

The orbit data is extracted from the following two-line orbital elements,

1 39026U 12072A   17146.55904015 +.00001495 +00000-0 +60880-4 0  9995
2 39026 097.2244 165.1433 0038821 252.9648 106.7335 15.25374490246693
Epoch (UTC): 26 May 2017 13:25:01
Eccentricity: 0.0038821
inclination: 97.2244°
perigee height: 463 km
apogee height: 516 km
right ascension of ascending node: 165.1433°
argument of perigee: 252.9648°
revolutions per day: 15.25374490
mean anomaly at epoch: 106.7335°
orbit number at epoch: 24669

The dashed part of the orbit path shows where the satellite is in the earth's shadow,  

DLR